RYR2JH LEVC-GCTS

Flight info

Callsign RYR2JH
Flight time 3h 5m
Altitude 35000
Route ASTRO M985 PIMOS N869 GALTO UN869 RUSIK
Aircraft B738/M-SDE3FGILRWY/SB1

Departure

Time 2026-05-04 22:20
Airport Valencia Airport (LEVC)

Arrival

Time 2026-05-05 01:26
Airport Tenerife Sur Airport (GCTS)
Time Latitude Longitude Altitude Speed Heading
2026-05-04 21:46 39.49029 -0.47285 190 ft 0 kts 13°
2026-05-04 22:08 39.49021 -0.47288 190 ft 3 kts 14°
2026-05-04 22:08 39.48997 -0.47295 205 ft 3 kts 11°
2026-05-04 22:08 39.48974 -0.47300 200 ft 3 kts 15°
2026-05-04 22:08 39.48951 -0.47305 190 ft 4 kts 351°
2026-05-04 22:09 39.48931 -0.47294 205 ft 4 kts 309°
2026-05-04 22:09 39.48923 -0.47280 205 ft 1 kts 296°
2026-05-04 22:09 39.48923 -0.47278 205 ft 1 kts 296°
2026-05-04 22:12 39.48928 -0.47293 189 ft 6 kts 296°
2026-05-04 22:12 39.48951 -0.47352 203 ft 7 kts 296°
2026-05-04 22:13 39.48973 -0.47410 197 ft 7 kts 296°
2026-05-04 22:13 39.48995 -0.47470 201 ft 9 kts 296°
2026-05-04 22:13 39.49025 -0.47550 208 ft 11 kts 296°
2026-05-04 22:13 39.49057 -0.47642 205 ft 11 kts 279°
2026-05-04 22:14 39.49046 -0.47739 205 ft 11 kts 256°
2026-05-04 22:14 39.49032 -0.47815 205 ft 7 kts 257°
2026-05-04 22:14 39.49030 -0.47889 202 ft 12 kts 283°
2026-05-04 22:14 39.49078 -0.48020 211 ft 21 kts 296°
2026-05-04 22:15 39.49146 -0.48198 211 ft 22 kts 296°
2026-05-04 22:15 39.49213 -0.48372 212 ft 21 kts 296°
2026-05-04 22:15 39.49277 -0.48541 221 ft 21 kts 296°
2026-05-04 22:15 39.49340 -0.48705 221 ft 20 kts 296°
2026-05-04 22:16 39.49400 -0.48864 220 ft 19 kts 296°
2026-05-04 22:16 39.49459 -0.49018 222 ft 19 kts 296°
2026-05-04 22:16 39.49516 -0.49167 224 ft 18 kts 296°
2026-05-04 22:16 39.49571 -0.49311 225 ft 18 kts 296°
2026-05-04 22:17 39.49623 -0.49448 228 ft 17 kts 296°
2026-05-04 22:17 39.49673 -0.49580 234 ft 16 kts 296°
2026-05-04 22:17 39.49723 -0.49710 236 ft 16 kts 296°
2026-05-04 22:17 39.49768 -0.49828 239 ft 12 kts 296°
2026-05-04 22:18 39.49796 -0.49902 242 ft 8 kts 295°
2026-05-04 22:18 39.49781 -0.49961 244 ft 8 kts 217°
2026-05-04 22:18 39.49736 -0.49992 245 ft 7 kts 205°
2026-05-04 22:18 39.49692 -0.50020 246 ft 8 kts 207°
2026-05-04 22:19 39.49639 -0.50011 245 ft 10 kts 132°
2026-05-04 22:19 39.49603 -0.49925 241 ft 14 kts 116°
2026-05-04 22:19 39.49453 -0.49531 227 ft 86 kts 116°
2026-05-04 22:19 39.49093 -0.48584 215 ft 149 kts 116°
2026-05-04 22:20 39.48551 -0.47194 478 ft 180 kts 117°
2026-05-04 22:20 39.47960 -0.45771 1296 ft 183 kts 119°
2026-05-04 22:20 39.47340 -0.44294 2042 ft 190 kts 120°
2026-05-04 22:20 39.46403 -0.42967 2357 ft 215 kts 154°
2026-05-04 22:21 39.44962 -0.42173 2618 ft 236 kts 147°
2026-05-04 22:21 39.43902 -0.40470 2900 ft 258 kts 114°
2026-05-04 22:21 39.43123 -0.38315 3460 ft 270 kts 119°
2026-05-04 22:21 39.42158 -0.36205 4313 ft 274 kts 123°
2026-05-04 22:22 39.41110 -0.34116 5138 ft 279 kts 124°
2026-05-04 22:22 39.40013 -0.32013 5718 ft 284 kts 127°
2026-05-04 22:22 39.38553 -0.30349 5983 ft 281 kts 159°
2026-05-04 22:22 39.36658 -0.29960 5974 ft 275 kts 193°
2026-05-04 22:23 39.35009 -0.30980 5973 ft 258 kts 229°
2026-05-04 22:23 39.34103 -0.32865 6033 ft 243 kts 250°
2026-05-04 22:23 39.33420 -0.34849 6017 ft 243 kts 242°
2026-05-04 22:23 39.32552 -0.36771 6119 ft 256 kts 244°
2026-05-04 22:24 39.31767 -0.38897 6700 ft 265 kts 249°
2026-05-04 22:24 39.31126 -0.41123 7583 ft 264 kts 253°
2026-05-04 22:24 39.30656 -0.43411 8462 ft 264 kts 258°
2026-05-04 22:24 39.30368 -0.45760 9316 ft 266 kts 263°
2026-05-04 22:25 39.30262 -0.48157 10141 ft 269 kts 268°
2026-05-04 22:25 39.30345 -0.50584 10895 ft 273 kts 273°
2026-05-04 22:25 39.30628 -0.53078 11269 ft 293 kts 279°
2026-05-04 22:25 39.31170 -0.55726 11459 ft 317 kts 285°
2026-05-04 22:26 39.32001 -0.58450 11888 ft 333 kts 292°
2026-05-04 22:26 39.33120 -0.61106 12579 ft 340 kts 299°
2026-05-04 22:26 39.34502 -0.63596 13402 ft 344 kts 306°
2026-05-04 22:26 39.35951 -0.66051 14122 ft 343 kts 294°
2026-05-04 22:27 39.36491 -0.68987 14814 ft 337 kts 266°
2026-05-04 22:27 39.35880 -0.71867 15537 ft 336 kts 240°
2026-05-04 22:27 39.34330 -0.74137 16266 ft 339 kts 224°
2026-05-04 22:27 39.32577 -0.76170 16996 ft 340 kts 226°
2026-05-04 22:28 39.30939 -0.78388 17665 ft 342 kts 231°
2026-05-04 22:28 39.29432 -0.80769 18342 ft 343 kts 234°
2026-05-04 22:28 39.27987 -0.83233 18921 ft 345 kts 235°
2026-05-04 22:28 39.26550 -0.85732 19468 ft 348 kts 236°
2026-05-04 22:29 39.25116 -0.88211 20018 ft 351 kts 235°
2026-05-04 22:29 39.23613 -0.90753 20577 ft 353 kts 234°
2026-05-04 22:29 39.22134 -0.93237 21141 ft 355 kts 234°
2026-05-04 22:29 39.20622 -0.95773 21674 ft 358 kts 234°
2026-05-04 22:30 39.19098 -0.98331 22175 ft 361 kts 234°
2026-05-04 22:30 39.17563 -1.00907 22702 ft 363 kts 234°
2026-05-04 22:30 39.16017 -1.03503 23204 ft 366 kts 234°
2026-05-04 22:30 39.14459 -1.06117 23677 ft 369 kts 234°
2026-05-04 22:31 39.12892 -1.08745 24083 ft 371 kts 234°
2026-05-04 22:31 39.11316 -1.11388 24482 ft 373 kts 234°
2026-05-04 22:31 39.10266 -1.13147 24752 ft 375 kts 234°
2026-05-04 22:31 39.08675 -1.15812 25194 ft 376 kts 235°
2026-05-04 22:32 39.07083 -1.18474 25657 ft 376 kts 235°
2026-05-04 22:32 39.05484 -1.21150 26024 ft 378 kts 235°
2026-05-04 22:32 39.03872 -1.23842 26373 ft 381 kts 235°
2026-05-04 22:32 39.02248 -1.26552 26737 ft 384 kts 235°
2026-05-04 22:33 39.00614 -1.29278 27136 ft 385 kts 235°
2026-05-04 22:33 38.98977 -1.32011 27514 ft 387 kts 235°
2026-05-04 22:33 38.97330 -1.34757 27858 ft 389 kts 235°
2026-05-04 22:33 38.95674 -1.37518 28211 ft 391 kts 235°
2026-05-04 22:34 38.94010 -1.40291 28546 ft 393 kts 235°
2026-05-04 22:34 38.92334 -1.43079 28878 ft 395 kts 235°
2026-05-04 22:34 38.90650 -1.45879 29206 ft 397 kts 235°
2026-05-04 22:34 38.88957 -1.48692 29536 ft 399 kts 235°
2026-05-04 22:35 38.87259 -1.51511 29844 ft 400 kts 236°
2026-05-04 22:35 38.85556 -1.54333 30324 ft 397 kts 236°
2026-05-04 22:35 38.83879 -1.57109 30942 ft 390 kts 236°
2026-05-04 22:35 38.82225 -1.59844 31379 ft 388 kts 237°
2026-05-04 22:36 38.80571 -1.62583 31649 ft 389 kts 237°
2026-05-04 22:36 38.78914 -1.65325 31936 ft 389 kts 237°
2026-05-04 22:36 38.77258 -1.68061 32326 ft 387 kts 237°
2026-05-04 22:36 38.75612 -1.70778 32739 ft 385 kts 237°
2026-05-04 22:37 38.73973 -1.73480 33091 ft 384 kts 237°
2026-05-04 22:37 38.72336 -1.76177 33410 ft 383 kts 237°
2026-05-04 22:37 38.70703 -1.78863 33748 ft 382 kts 237°
2026-05-04 22:37 38.69072 -1.81540 34086 ft 380 kts 237°
2026-05-04 22:38 38.67444 -1.84212 34305 ft 381 kts 237°
2026-05-04 22:38 38.65807 -1.86896 34465 ft 383 kts 237°
2026-05-04 22:38 38.64165 -1.89588 34630 ft 385 kts 237°
2026-05-04 22:38 38.62517 -1.92287 34863 ft 384 kts 237°
2026-05-04 22:39 38.60873 -1.94977 35024 ft 386 kts 237°
2026-05-04 22:39 38.57535 -2.00436 35042 ft 394 kts 237°
2026-05-04 22:40 38.54158 -2.05946 35047 ft 398 kts 237°
2026-05-04 22:40 38.50728 -2.11533 35047 ft 401 kts 237°
2026-05-04 22:41 38.47273 -2.17159 35054 ft 404 kts 237°
2026-05-04 22:41 38.43778 -2.22842 35052 ft 405 kts 237°
2026-05-04 22:42 38.40324 -2.28452 35037 ft 405 kts 236°
2026-05-04 22:42 38.36848 -2.34084 35047 ft 404 kts 236°
2026-05-04 22:43 38.33089 -2.39442 35054 ft 407 kts 231°
2026-05-04 22:43 38.29173 -2.44649 35052 ft 407 kts 231°
2026-05-04 22:44 38.25269 -2.49846 35059 ft 405 kts 231°
2026-05-04 22:44 38.21390 -2.55034 35054 ft 404 kts 232°
2026-05-04 22:45 38.17523 -2.60210 35075 ft 403 kts 231°
2026-05-04 22:45 38.11717 -2.67952 35057 ft 403 kts 231°
2026-05-04 22:46 38.07851 -2.73101 35074 ft 404 kts 231°
2026-05-04 22:46 38.03971 -2.78262 35064 ft 405 kts 231°
2026-05-04 22:47 38.00077 -2.83433 35063 ft 405 kts 231°
2026-05-04 22:47 37.96181 -2.88596 35064 ft 405 kts 231°
2026-05-04 22:48 37.92273 -2.93751 35056 ft 406 kts 231°
2026-05-04 22:48 37.88354 -2.98900 35061 ft 405 kts 231°
2026-05-04 22:49 37.84434 -3.04047 35053 ft 407 kts 231°
2026-05-04 22:49 37.80510 -3.09193 35055 ft 406 kts 231°
2026-05-04 22:50 37.76589 -3.14329 35053 ft 406 kts 231°
2026-05-04 22:50 37.72690 -3.19426 35036 ft 406 kts 231°
2026-05-04 22:51 37.68780 -3.24548 35057 ft 405 kts 231°
2026-05-04 22:51 37.64876 -3.29663 35056 ft 404 kts 231°
2026-05-04 22:52 37.60970 -3.34772 35056 ft 405 kts 231°
2026-05-04 22:52 37.57059 -3.39880 35070 ft 405 kts 231°
2026-05-04 22:53 37.53136 -3.44995 35063 ft 406 kts 230°
2026-05-04 22:53 37.49206 -3.50110 35064 ft 407 kts 230°
2026-05-04 22:54 37.45266 -3.55230 35077 ft 408 kts 230°
2026-05-04 22:54 37.41314 -3.60359 35043 ft 408 kts 230°
2026-05-04 22:55 37.37357 -3.65481 35059 ft 409 kts 230°
2026-05-04 22:55 37.33386 -3.70606 35073 ft 410 kts 230°
2026-05-04 22:56 37.29406 -3.75735 35070 ft 410 kts 230°
2026-05-04 22:56 37.25428 -3.80855 35062 ft 410 kts 230°
2026-05-04 22:57 37.21456 -3.85957 35050 ft 407 kts 231°
2026-05-04 22:57 37.17514 -3.91015 35043 ft 404 kts 231°
2026-05-04 22:58 37.13596 -3.96034 35046 ft 401 kts 231°
2026-05-04 22:58 37.09696 -4.01024 35046 ft 400 kts 231°
2026-05-04 22:59 37.05806 -4.05994 35048 ft 400 kts 231°
2026-05-04 22:59 37.01917 -4.10954 35060 ft 399 kts 231°
2026-05-04 23:00 36.98054 -4.15875 35050 ft 399 kts 231°
2026-05-04 23:00 36.94140 -4.20851 35045 ft 399 kts 231°
2026-05-04 23:01 36.90240 -4.25802 35007 ft 400 kts 231°
2026-05-04 23:01 36.86340 -4.30748 35022 ft 400 kts 231°
2026-05-04 23:02 36.82425 -4.35687 35032 ft 402 kts 229°
2026-05-04 23:02 36.77866 -4.39897 35031 ft 413 kts 219°
2026-05-04 23:03 36.73024 -4.43682 35017 ft 414 kts 219°
2026-05-04 23:03 36.68154 -4.47516 35017 ft 414 kts 219°
2026-05-04 23:04 36.63300 -4.51353 35015 ft 413 kts 219°
2026-05-04 23:04 36.58457 -4.55183 35021 ft 413 kts 219°
2026-05-04 23:05 36.53609 -4.59012 35031 ft 413 kts 219°
2026-05-04 23:05 36.48754 -4.62840 35029 ft 413 kts 219°
2026-05-04 23:06 36.43901 -4.66661 35036 ft 413 kts 219°
2026-05-04 23:06 36.39043 -4.70480 35021 ft 413 kts 219°
2026-05-04 23:07 36.34190 -4.74288 35035 ft 413 kts 219°
2026-05-04 23:07 36.29339 -4.78090 35043 ft 413 kts 219°
2026-05-04 23:08 36.24485 -4.81890 35056 ft 413 kts 219°
2026-05-04 23:08 36.19628 -4.85686 35055 ft 413 kts 219°
2026-05-04 23:09 36.14771 -4.89477 35053 ft 413 kts 219°
2026-05-04 23:09 36.09939 -4.93300 35063 ft 412 kts 219°
2026-05-04 23:10 36.05118 -4.97138 35071 ft 412 kts 219°
2026-05-04 23:10 36.00291 -5.00971 35064 ft 413 kts 219°
2026-05-04 23:11 35.95458 -5.04797 35073 ft 413 kts 219°
2026-05-04 23:11 35.90622 -5.08620 35074 ft 413 kts 219°
2026-05-04 23:12 35.85820 -5.12411 35072 ft 413 kts 219°
2026-05-04 23:12 35.81071 -5.16355 35072 ft 410 kts 222°
2026-05-04 23:13 35.76514 -5.20567 35074 ft 409 kts 223°
2026-05-04 23:13 35.71978 -5.24797 35076 ft 409 kts 223°
2026-05-04 23:14 35.67426 -5.29011 35077 ft 409 kts 223°
2026-05-04 23:14 35.62872 -5.33202 35051 ft 410 kts 222°
2026-05-04 23:15 35.58307 -5.37389 35058 ft 409 kts 222°
2026-05-04 23:15 35.53737 -5.41575 35073 ft 410 kts 222°
2026-05-04 23:16 35.49154 -5.45766 35067 ft 411 kts 222°
2026-05-04 23:16 35.44563 -5.49958 35093 ft 412 kts 222°
2026-05-04 23:17 35.39957 -5.54158 35086 ft 413 kts 222°
2026-05-04 23:17 35.35346 -5.58356 35098 ft 412 kts 221°
2026-05-04 23:18 35.31509 -5.61846 35106 ft 414 kts 221°
2026-05-04 23:18 35.26877 -5.66052 35110 ft 415 kts 221°
2026-05-04 23:19 35.22241 -5.70256 35113 ft 415 kts 221°
2026-05-04 23:19 35.17592 -5.74465 35114 ft 416 kts 221°
2026-05-04 23:20 35.12935 -5.78675 35115 ft 416 kts 221°
2026-05-04 23:20 35.08277 -5.82881 35104 ft 416 kts 221°
2026-05-04 23:21 35.03620 -5.87079 35107 ft 416 kts 221°
2026-05-04 23:21 34.98957 -5.91277 35109 ft 417 kts 221°
2026-05-04 23:22 34.94290 -5.95472 35100 ft 417 kts 221°
2026-05-04 23:22 34.89624 -5.99660 35107 ft 417 kts 221°
2026-05-04 23:23 34.84954 -6.03846 35103 ft 417 kts 221°
2026-05-04 23:23 34.80282 -6.08028 35094 ft 417 kts 220°
2026-05-04 23:24 34.75609 -6.12204 35095 ft 417 kts 220°
2026-05-04 23:24 34.70932 -6.16378 35103 ft 417 kts 220°
2026-05-04 23:25 34.66248 -6.20553 35105 ft 418 kts 220°
2026-05-04 23:25 34.61557 -6.24727 35099 ft 418 kts 220°
2026-05-04 23:26 34.56863 -6.28899 35075 ft 418 kts 220°
2026-05-04 23:26 34.52173 -6.33059 35090 ft 417 kts 220°
2026-05-04 23:27 34.47488 -6.37210 35097 ft 417 kts 220°
2026-05-04 23:27 34.42808 -6.41351 35098 ft 417 kts 220°
2026-05-04 23:28 34.38127 -6.45488 35095 ft 416 kts 220°
2026-05-04 23:28 34.33446 -6.49619 35098 ft 417 kts 220°
2026-05-04 23:29 34.28791 -6.53721 35081 ft 416 kts 220°
2026-05-04 23:29 34.24111 -6.57838 35091 ft 416 kts 220°
2026-05-04 23:30 34.19434 -6.61949 35102 ft 416 kts 220°
2026-05-04 23:30 34.14755 -6.66055 35102 ft 416 kts 220°
2026-05-04 23:31 34.10076 -6.70157 35103 ft 416 kts 220°
2026-05-04 23:31 34.05392 -6.74255 35104 ft 416 kts 220°
2026-05-04 23:32 34.00647 -6.78251 35100 ft 416 kts 219°
2026-05-04 23:32 33.95853 -6.82161 35112 ft 415 kts 218°
2026-05-04 23:33 33.91072 -6.86063 35093 ft 415 kts 218°
2026-05-04 23:33 33.86293 -6.89977 35115 ft 415 kts 218°
2026-05-04 23:34 33.81517 -6.93891 35098 ft 416 kts 218°
2026-05-04 23:34 33.76736 -6.97805 35102 ft 416 kts 218°
2026-05-04 23:35 33.71962 -7.01707 35094 ft 414 kts 219°
2026-05-04 23:35 33.67199 -7.05595 35102 ft 414 kts 219°
2026-05-04 23:36 33.62439 -7.09475 35104 ft 413 kts 219°
2026-05-04 23:36 33.57684 -7.13346 35104 ft 413 kts 219°
2026-05-04 23:37 33.52930 -7.17211 35100 ft 413 kts 219°
2026-05-04 23:37 33.48180 -7.21067 35105 ft 412 kts 219°
2026-05-04 23:38 33.43434 -7.24916 35101 ft 412 kts 219°
2026-05-04 23:38 33.38691 -7.28756 35107 ft 411 kts 219°
2026-05-04 23:39 33.33949 -7.32591 35113 ft 411 kts 219°
2026-05-04 23:39 33.29210 -7.36419 35114 ft 411 kts 219°
2026-05-04 23:40 33.24466 -7.40245 35120 ft 411 kts 219°
2026-05-04 23:40 33.19721 -7.44068 35117 ft 411 kts 219°
2026-05-04 23:41 33.14976 -7.47886 35115 ft 412 kts 219°
2026-05-04 23:41 33.10193 -7.51656 35110 ft 413 kts 217°
2026-05-04 23:42 33.05237 -7.55147 35113 ft 414 kts 215°
2026-05-04 23:42 33.00257 -7.58592 35111 ft 414 kts 215°
2026-05-04 23:43 32.95288 -7.62065 35110 ft 414 kts 216°
2026-05-04 23:43 32.90356 -7.65526 35097 ft 414 kts 216°
2026-05-04 23:44 32.85400 -7.68998 35101 ft 413 kts 216°
2026-05-04 23:44 32.80446 -7.72465 35098 ft 413 kts 216°
2026-05-04 23:45 32.75496 -7.75928 35097 ft 413 kts 216°
2026-05-04 23:45 32.70549 -7.79385 35096 ft 412 kts 216°
2026-05-04 23:46 32.65604 -7.82837 35094 ft 412 kts 216°
2026-05-04 23:46 32.60667 -7.86277 35083 ft 410 kts 216°
2026-05-04 23:47 32.55759 -7.89694 35096 ft 408 kts 216°
2026-05-04 23:47 32.50871 -7.93093 35102 ft 407 kts 216°
2026-05-04 23:48 32.45992 -7.96482 35091 ft 406 kts 216°
2026-05-04 23:48 32.41118 -7.99863 35097 ft 406 kts 216°
2026-05-04 23:49 32.36251 -8.03234 35046 ft 405 kts 216°
2026-05-04 23:49 32.31407 -8.06585 35084 ft 403 kts 217°
2026-05-04 23:50 32.26581 -8.09920 35089 ft 401 kts 217°
2026-05-04 23:50 32.21769 -8.13242 35088 ft 400 kts 217°
2026-05-04 23:51 32.16968 -8.16553 35090 ft 399 kts 217°
2026-05-04 23:51 32.12204 -8.19832 35088 ft 399 kts 216°
2026-05-04 23:52 32.07385 -8.23089 35057 ft 399 kts 216°
2026-05-04 23:52 32.02569 -8.26311 35079 ft 398 kts 216°
2026-05-04 23:53 31.97761 -8.29528 35087 ft 397 kts 216°
2026-05-04 23:53 31.92962 -8.32741 35089 ft 397 kts 216°
2026-05-04 23:54 31.88166 -8.35952 35085 ft 397 kts 216°
2026-05-04 23:54 31.83362 -8.39163 35087 ft 398 kts 216°
2026-05-04 23:55 31.78546 -8.42379 35058 ft 398 kts 216°
2026-05-04 23:56 31.71344 -8.47179 35082 ft 396 kts 216°
2026-05-04 23:56 31.66550 -8.50370 35084 ft 396 kts 216°
2026-05-04 23:57 31.61763 -8.53553 35085 ft 395 kts 216°
2026-05-04 23:57 31.56979 -8.56730 35084 ft 395 kts 216°
2026-05-04 23:58 31.52194 -8.59904 35089 ft 395 kts 216°
2026-05-04 23:58 31.47420 -8.63066 35079 ft 393 kts 216°
2026-05-04 23:59 31.42657 -8.66217 35084 ft 393 kts 216°
2026-05-04 23:59 31.37904 -8.69359 35094 ft 392 kts 216°
2026-05-05 00:00 31.33152 -8.72496 35104 ft 392 kts 216°
2026-05-05 00:00 31.28767 -8.76136 35104 ft 382 kts 229°
2026-05-05 00:01 31.25364 -8.80833 35086 ft 377 kts 239°
2026-05-05 00:01 31.22508 -8.85970 35092 ft 377 kts 239°
2026-05-05 00:02 31.19662 -8.91109 35076 ft 376 kts 239°
2026-05-05 00:02 31.16827 -8.96204 35066 ft 377 kts 239°
2026-05-05 00:03 31.13960 -9.01336 35076 ft 378 kts 239°
2026-05-05 00:03 31.11086 -9.06470 35079 ft 378 kts 239°
2026-05-05 00:04 31.08210 -9.11597 35062 ft 378 kts 239°
2026-05-05 00:04 31.05333 -9.16717 35056 ft 377 kts 239°
2026-05-05 00:05 31.02943 -9.20966 35050 ft 377 kts 239°
2026-05-05 00:05 30.99581 -9.26934 35050 ft 376 kts 239°
2026-05-05 00:06 30.97191 -9.31174 35045 ft 376 kts 239°
2026-05-05 00:06 30.94315 -9.36268 35035 ft 376 kts 238°
2026-05-05 00:07 30.91441 -9.41352 35028 ft 376 kts 239°
2026-05-05 00:07 30.88562 -9.46438 35024 ft 376 kts 238°
2026-05-05 00:08 30.85686 -9.51513 35033 ft 376 kts 238°
2026-05-05 00:08 30.82805 -9.56591 34986 ft 376 kts 238°
2026-05-05 00:09 30.79922 -9.61651 35013 ft 375 kts 238°
2026-05-05 00:09 30.77047 -9.66708 35013 ft 375 kts 238°
2026-05-05 00:10 30.74170 -9.71765 35010 ft 375 kts 238°
2026-05-05 00:10 30.71284 -9.76827 34996 ft 376 kts 238°
2026-05-05 00:11 30.68396 -9.81883 35013 ft 376 kts 238°
2026-05-05 00:11 30.65503 -9.86943 35009 ft 376 kts 238°
2026-05-05 00:12 30.62624 -9.91972 35014 ft 376 kts 238°
2026-05-05 00:12 30.59723 -9.97032 35004 ft 376 kts 238°
2026-05-05 00:13 30.56823 -10.02084 34998 ft 376 kts 238°
2026-05-05 00:13 30.53921 -10.07133 35005 ft 376 kts 238°
2026-05-05 00:14 30.51019 -10.12176 35019 ft 376 kts 238°
2026-05-05 00:14 30.48113 -10.17218 35019 ft 376 kts 238°
2026-05-05 00:15 30.45207 -10.22256 35031 ft 376 kts 238°
2026-05-05 00:15 30.42297 -10.27292 35019 ft 376 kts 238°
2026-05-05 00:16 30.39388 -10.32321 35032 ft 376 kts 238°
2026-05-05 00:16 30.36478 -10.37346 35030 ft 375 kts 238°
2026-05-05 00:17 30.33569 -10.42364 35022 ft 375 kts 238°
2026-05-05 00:17 30.30657 -10.47379 35038 ft 375 kts 238°
2026-05-05 00:18 30.27745 -10.52389 35041 ft 375 kts 238°
2026-05-05 00:18 30.24832 -10.57393 35067 ft 375 kts 238°
2026-05-05 00:19 30.21935 -10.62364 35048 ft 375 kts 238°
2026-05-05 00:19 30.19016 -10.67367 35040 ft 375 kts 238°
2026-05-05 00:20 30.16094 -10.72368 35053 ft 375 kts 238°
2026-05-05 00:20 30.13171 -10.77366 35056 ft 375 kts 238°
2026-05-05 00:21 30.10245 -10.82362 35058 ft 375 kts 238°
2026-05-05 00:21 30.07316 -10.87356 35063 ft 376 kts 238°
2026-05-05 00:22 30.04386 -10.92347 35071 ft 376 kts 238°
2026-05-05 00:22 30.01450 -10.97341 35074 ft 376 kts 238°
2026-05-05 00:23 29.98510 -11.02337 35071 ft 377 kts 238°
2026-05-05 00:23 29.95564 -11.07335 35069 ft 377 kts 238°
2026-05-05 00:24 29.92615 -11.12335 35036 ft 377 kts 238°
2026-05-05 00:24 29.89668 -11.17323 35057 ft 376 kts 238°
2026-05-05 00:25 29.86744 -11.22266 35075 ft 376 kts 238°
2026-05-05 00:25 29.83801 -11.27236 35079 ft 375 kts 238°
2026-05-05 00:26 29.80855 -11.32204 35103 ft 376 kts 238°
2026-05-05 00:26 29.77906 -11.37172 35085 ft 376 kts 238°
2026-05-05 00:27 29.74951 -11.42144 35086 ft 376 kts 238°
2026-05-05 00:27 29.71991 -11.47118 35085 ft 377 kts 238°
2026-05-05 00:28 29.69028 -11.52091 35079 ft 377 kts 238°
2026-05-05 00:28 29.66060 -11.57067 35077 ft 377 kts 238°
2026-05-05 00:29 29.63091 -11.62037 35081 ft 377 kts 238°
2026-05-05 00:29 29.60119 -11.67008 35086 ft 377 kts 238°
2026-05-05 00:30 29.57151 -11.71964 35076 ft 376 kts 237°
2026-05-05 00:30 29.54188 -11.76908 35089 ft 375 kts 237°
2026-05-05 00:31 29.51226 -11.81843 35092 ft 375 kts 237°
2026-05-05 00:31 29.48265 -11.86772 35089 ft 375 kts 237°
2026-05-05 00:32 29.45302 -11.91697 35089 ft 375 kts 237°
2026-05-05 00:32 29.42338 -11.96617 35090 ft 375 kts 237°
2026-05-05 00:33 29.39372 -12.01536 35090 ft 375 kts 237°
2026-05-05 00:33 29.36404 -12.06452 35104 ft 375 kts 237°
2026-05-05 00:34 29.33431 -12.11371 35096 ft 376 kts 237°
2026-05-05 00:34 29.30453 -12.16292 35095 ft 376 kts 237°
2026-05-05 00:35 29.27472 -12.21212 35097 ft 376 kts 237°
2026-05-05 00:35 29.24487 -12.26133 35087 ft 376 kts 237°
2026-05-05 00:36 29.21523 -12.31013 35092 ft 376 kts 237°
2026-05-05 00:36 29.18539 -12.35920 35096 ft 376 kts 237°
2026-05-05 00:37 29.15551 -12.40828 35120 ft 376 kts 237°
2026-05-05 00:37 29.12558 -12.45740 35098 ft 376 kts 237°
2026-05-05 00:38 29.09562 -12.50649 35093 ft 377 kts 237°
2026-05-05 00:38 29.06564 -12.55558 35092 ft 376 kts 237°
2026-05-05 00:39 29.03565 -12.60460 35096 ft 376 kts 237°
2026-05-05 00:39 29.00564 -12.65362 35094 ft 376 kts 237°
2026-05-05 00:40 28.97563 -12.70258 35091 ft 376 kts 237°
2026-05-05 00:40 28.94561 -12.75152 35094 ft 376 kts 237°
2026-05-05 00:41 28.91558 -12.80039 35080 ft 376 kts 237°
2026-05-05 00:41 28.88764 -12.85062 35093 ft 374 kts 241°
2026-05-05 00:42 28.86285 -12.90279 35092 ft 374 kts 242°
2026-05-05 00:42 28.83817 -12.95500 35093 ft 374 kts 242°
2026-05-05 00:43 28.81321 -13.00701 35092 ft 374 kts 242°
2026-05-05 00:43 28.78807 -13.05891 35093 ft 374 kts 242°
2026-05-05 00:44 28.76286 -13.11074 35100 ft 374 kts 242°
2026-05-05 00:44 28.73777 -13.16221 35107 ft 374 kts 242°
2026-05-05 00:45 28.71248 -13.21402 35098 ft 374 kts 242°
2026-05-05 00:45 28.68716 -13.26583 35097 ft 374 kts 242°
2026-05-05 00:46 28.66184 -13.31758 35095 ft 374 kts 242°
2026-05-05 00:46 28.63650 -13.36929 35084 ft 374 kts 242°
2026-05-05 00:47 28.61115 -13.42096 35083 ft 374 kts 242°
2026-05-05 00:47 28.58579 -13.47259 35086 ft 374 kts 242°
2026-05-05 00:48 28.56041 -13.52422 35081 ft 374 kts 242°
2026-05-05 00:48 28.53504 -13.57573 35092 ft 373 kts 242°
2026-05-05 00:49 28.50965 -13.62723 35101 ft 373 kts 242°
2026-05-05 00:49 28.48423 -13.67872 35102 ft 373 kts 242°
2026-05-05 00:50 28.45879 -13.73020 35102 ft 373 kts 242°
2026-05-05 00:50 28.43352 -13.78128 35104 ft 374 kts 242°
2026-05-05 00:51 28.40803 -13.83272 35104 ft 374 kts 242°
2026-05-05 00:51 28.38252 -13.88414 35105 ft 374 kts 242°
2026-05-05 00:52 28.35697 -13.93557 35084 ft 374 kts 241°
2026-05-05 00:52 28.33147 -13.98685 35104 ft 373 kts 242°
2026-05-05 00:53 28.30591 -14.03818 35099 ft 374 kts 242°
2026-05-05 00:53 28.28030 -14.08956 35082 ft 374 kts 242°
2026-05-05 00:54 28.25469 -14.14088 35080 ft 374 kts 242°
2026-05-05 00:54 28.22904 -14.19219 35070 ft 374 kts 242°
2026-05-05 00:55 28.20771 -14.23483 35087 ft 375 kts 242°
2026-05-05 00:55 28.18201 -14.28614 35069 ft 374 kts 242°
2026-05-05 00:56 28.15633 -14.33735 35077 ft 374 kts 242°
2026-05-05 00:56 28.13066 -14.38848 35076 ft 373 kts 242°
2026-05-05 00:57 28.10496 -14.43962 35079 ft 373 kts 242°
2026-05-05 00:57 28.07924 -14.49072 35080 ft 373 kts 242°
2026-05-05 00:58 28.05350 -14.54182 35074 ft 373 kts 242°
2026-05-05 00:58 28.02775 -14.59287 35089 ft 373 kts 242°
2026-05-05 00:59 28.00326 -14.64459 35073 ft 373 kts 247°
2026-05-05 00:59 27.98806 -14.70061 35083 ft 373 kts 255°
2026-05-05 01:00 27.97595 -14.75766 35073 ft 373 kts 255°
2026-05-05 01:00 27.96376 -14.81470 35077 ft 373 kts 255°
2026-05-05 01:01 27.95145 -14.87168 35079 ft 373 kts 255°
2026-05-05 01:01 27.93922 -14.92807 35056 ft 363 kts 254°
2026-05-05 01:02 27.92723 -14.98313 35071 ft 360 kts 254°
2026-05-05 01:02 27.92128 -15.01039 34811 ft 365 kts 254°
2026-05-05 01:02 27.91518 -15.03828 34502 ft 366 kts 254°
2026-05-05 01:02 27.90907 -15.06622 34117 ft 366 kts 254°
2026-05-05 01:03 27.90296 -15.09418 33661 ft 367 kts 255°
2026-05-05 01:03 27.89682 -15.12222 33224 ft 368 kts 255°
2026-05-05 01:03 27.89064 -15.15040 32795 ft 370 kts 255°
2026-05-05 01:03 27.88444 -15.17867 32370 ft 372 kts 255°
2026-05-05 01:04 27.87818 -15.20712 31947 ft 374 kts 255°
2026-05-05 01:04 27.86554 -15.26460 31098 ft 380 kts 255°
2026-05-05 01:04 27.85921 -15.29334 30389 ft 374 kts 255°
2026-05-05 01:05 27.85292 -15.32189 29216 ft 375 kts 255°
2026-05-05 01:05 27.84660 -15.35056 27944 ft 377 kts 255°
2026-05-05 01:05 27.84020 -15.37951 26592 ft 382 kts 255°
2026-05-05 01:05 27.83398 -15.40890 25276 ft 387 kts 258°
2026-05-05 01:06 27.83078 -15.43917 24217 ft 388 kts 264°
2026-05-05 01:06 27.83097 -15.46951 23316 ft 385 kts 271°
2026-05-05 01:06 27.83349 -15.49945 22354 ft 380 kts 271°
2026-05-05 01:06 27.83599 -15.52892 21371 ft 375 kts 271°
2026-05-05 01:07 27.83841 -15.55815 20430 ft 372 kts 271°
2026-05-05 01:07 27.84078 -15.58737 19832 ft 371 kts 271°
2026-05-05 01:07 27.84311 -15.61622 19345 ft 366 kts 271°
2026-05-05 01:07 27.84539 -15.64464 18938 ft 362 kts 271°
2026-05-05 01:08 27.84763 -15.67285 18522 ft 358 kts 271°
2026-05-05 01:08 27.84984 -15.70084 18101 ft 359 kts 271°
2026-05-05 01:08 27.85199 -15.72909 17658 ft 362 kts 271°
2026-05-05 01:08 27.85419 -15.75749 17224 ft 362 kts 271°
2026-05-05 01:09 27.85640 -15.78569 16815 ft 359 kts 271°
2026-05-05 01:09 27.85859 -15.81370 16411 ft 357 kts 271°
2026-05-05 01:09 27.86076 -15.84150 16019 ft 354 kts 271°
2026-05-05 01:09 27.86290 -15.86919 15625 ft 353 kts 271°
2026-05-05 01:10 27.86502 -15.89676 15236 ft 352 kts 271°
2026-05-05 01:10 27.86713 -15.92424 14845 ft 351 kts 271°
2026-05-05 01:10 27.86923 -15.95170 14460 ft 350 kts 271°
2026-05-05 01:10 27.87132 -15.97911 14076 ft 350 kts 271°
2026-05-05 01:11 27.87338 -16.00614 13676 ft 350 kts 271°
2026-05-05 01:11 27.87546 -16.03353 13251 ft 349 kts 271°
2026-05-05 01:11 27.87752 -16.06069 12837 ft 342 kts 271°
2026-05-05 01:11 27.87952 -16.08684 12450 ft 326 kts 271°
2026-05-05 01:12 27.88146 -16.11220 12090 ft 313 kts 271°
2026-05-05 01:12 27.88326 -16.13591 11754 ft 301 kts 271°
2026-05-05 01:12 27.88500 -16.15907 11431 ft 291 kts 271°
2026-05-05 01:12 27.88668 -16.18147 11109 ft 282 kts 271°
2026-05-05 01:13 27.88830 -16.20321 10816 ft 273 kts 271°
2026-05-05 01:13 27.88987 -16.22431 10532 ft 266 kts 271°
2026-05-05 01:13 27.89139 -16.24483 10254 ft 258 kts 271°
2026-05-05 01:13 27.89287 -16.26470 10148 ft 250 kts 271°
2026-05-05 01:14 27.89430 -16.28420 9909 ft 249 kts 271°
2026-05-05 01:14 27.89573 -16.30369 9628 ft 248 kts 271°
2026-05-05 01:14 27.89715 -16.32312 9349 ft 248 kts 271°
2026-05-05 01:14 27.89857 -16.34252 9082 ft 247 kts 272°
2026-05-05 01:15 27.89999 -16.36187 8829 ft 247 kts 271°
2026-05-05 01:15 27.90142 -16.38128 8586 ft 250 kts 271°
2026-05-05 01:15 27.90285 -16.40114 8306 ft 257 kts 271°
2026-05-05 01:15 27.90432 -16.42140 8030 ft 259 kts 272°
2026-05-05 01:16 27.90580 -16.44168 7738 ft 259 kts 273°
2026-05-05 01:16 27.90730 -16.46198 7466 ft 258 kts 272°
2026-05-05 01:16 27.90877 -16.48218 7201 ft 257 kts 272°
2026-05-05 01:16 27.91023 -16.50236 6909 ft 258 kts 273°
2026-05-05 01:17 27.91169 -16.52256 6631 ft 258 kts 273°
2026-05-05 01:17 27.91317 -16.54310 6151 ft 266 kts 273°
2026-05-05 01:17 27.91468 -16.56413 5717 ft 271 kts 274°
2026-05-05 01:17 27.91619 -16.58517 5379 ft 266 kts 274°
2026-05-05 01:18 27.91767 -16.60574 5110 ft 258 kts 274°
2026-05-05 01:18 27.91910 -16.62558 4907 ft 248 kts 274°
2026-05-05 01:18 27.92047 -16.64470 4697 ft 240 kts 275°
2026-05-05 01:18 27.92181 -16.66344 4518 ft 240 kts 275°
2026-05-05 01:19 27.92315 -16.68223 4278 ft 239 kts 275°
2026-05-05 01:19 27.92447 -16.70082 4143 ft 233 kts 275°
2026-05-05 01:19 27.92575 -16.71883 4031 ft 226 kts 275°
2026-05-05 01:19 27.92698 -16.73626 3951 ft 217 kts 275°
2026-05-05 01:20 27.92814 -16.75273 3912 ft 204 kts 275°
2026-05-05 01:20 27.92925 -16.76845 3903 ft 199 kts 275°
2026-05-05 01:20 27.93126 -16.78386 3810 ft 199 kts 292°
2026-05-05 01:20 27.94025 -16.79504 3768 ft 195 kts 334°
2026-05-05 01:21 27.95324 -16.79734 3694 ft 195 kts 12°
2026-05-05 01:21 27.96434 -16.78917 3593 ft 196 kts 56°
2026-05-05 01:21 27.97114 -16.77557 3432 ft 202 kts 62°
2026-05-05 01:21 27.97788 -16.76157 3208 ft 201 kts 63°
2026-05-05 01:22 27.98373 -16.74737 2987 ft 196 kts 67°
2026-05-05 01:22 27.98877 -16.73334 2817 ft 188 kts 69°
2026-05-05 01:22 27.99350 -16.71969 2574 ft 185 kts 69°
2026-05-05 01:22 27.99817 -16.70617 2344 ft 185 kts 69°
2026-05-05 01:23 28.00284 -16.69264 2121 ft 183 kts 66°
2026-05-05 01:23 28.00742 -16.67942 1861 ft 177 kts 65°
2026-05-05 01:23 28.01183 -16.66672 1621 ft 171 kts 66°
2026-05-05 01:23 28.01608 -16.65444 1391 ft 164 kts 67°
2026-05-05 01:24 28.02010 -16.64280 1228 ft 150 kts 65°
2026-05-05 01:24 28.02376 -16.63230 1033 ft 134 kts 66°
2026-05-05 01:24 28.02672 -16.62304 911 ft 121 kts 67°
2026-05-05 01:24 28.03001 -16.61353 674 ft 141 kts 66°
2026-05-05 01:25 28.03372 -16.60309 508 ft 144 kts 67°
2026-05-05 01:25 28.03740 -16.59269 315 ft 140 kts 67°
2026-05-05 01:25 28.04083 -16.58296 209 ft 124 kts 68°
2026-05-05 01:25 28.04353 -16.57521 193 ft 78 kts 69°
2026-05-05 01:26 28.04482 -16.57153 200 ft 35 kts 68°
2026-05-05 01:26 28.04600 -16.56948 204 ft 28 kts 46°
2026-05-05 01:26 28.04700 -16.56821 217 ft 8 kts 49°
2026-05-05 01:26 28.04731 -16.56797 216 ft 8 kts 18°
2026-05-05 01:27 28.04778 -16.56839 218 ft 11 kts 273°
2026-05-05 01:27 28.04755 -16.56920 219 ft 10 kts 248°
2026-05-05 01:27 28.04730 -16.56992 220 ft 14 kts 248°
2026-05-05 01:27 28.04695 -16.57092 221 ft 11 kts 249°
2026-05-05 01:28 28.04711 -16.57152 222 ft 6 kts 322°
2026-05-05 01:28 28.04767 -16.57183 223 ft 9 kts 323°
2026-05-05 01:28 28.04779 -16.57235 224 ft 6 kts 257°
2026-05-05 01:28 28.04756 -16.57305 224 ft 14 kts 249°
2026-05-05 01:29 28.04718 -16.57415 224 ft 15 kts 249°
2026-05-05 01:29 28.04677 -16.57519 223 ft 14 kts 249°
2026-05-05 01:29 28.04655 -16.57583 223 ft 6 kts 249°
2026-05-05 01:29 28.04641 -16.57623 223 ft 5 kts 248°
2026-05-05 01:30 28.04643 -16.57645 224 ft 1 kts 304°
2026-05-05 01:30 28.04665 -16.57661 224 ft 6 kts 335°
2026-05-05 01:30 28.04691 -16.57673 225 ft 0 kts 339°
2026-05-05 01:30 28.04706 -16.57680 225 ft 2 kts 338°
2026-05-05 01:31 28.04710 -16.57681 225 ft 0 kts 338°